Location: Barcelona
(41.3830°N, 2.1830°E)
Time: 13:54:41
(UTC+01:00)

ISS - Pass Details

Date: 10 December 2017
Orbit: 402 x 406 km, 51.6° (Epoch: 16 December)

Event Time Altitude Azimuth Distance (km) Brightness Sun altitude
Rises 19:01:25 0° 310° (NW) 2,331 0.5 -18.0°
Reaches altitude 10° 19:03:47 10° 325° (NW) 1,468 -0.8 -18.5°
Enters shadow 19:05:33 20° 354° (N) 998 -2.0 -18.8°
